| time (UTC) | temp F | wind direction | speed MPH | gust MPH | rain 1hr in | rain 24hr in | rain mn in | humidity % | barometer mb |
| 20260905044704 | 59 | 314 | 0.0 | 0.0 | 0.00 | 0.00 | 0.00 | 88 | 1010.7 |
| 20260905044203 | 59 | 314 | 0.0 | 0.0 | 0.00 | 0.00 | 0.00 | 88 | 1010.6 |
| 20260905043704 | 59 | 314 | 0.0 | 0.0 | 0.00 | 0.00 | 0.00 | 88 | 1010.7 |
| 20260905042704 | 60 | 314 | 0.0 | 0.0 | 0.00 | 0.00 | 0.00 | 88 | 1010.8 |
| 20260905042204 | 60 | 314 | 0.0 | 0.0 | 0.00 | 0.00 | 0.00 | 88 | 1010.8 |
| 20260905041704 | 60 | 314 | 0.0 | 0.0 | 0.00 | 0.00 | 0.00 | 88 | 1010.8 |
| 20260905041203 | 60 | 314 | 0.0 | 0.0 | 0.00 | 0.00 | 0.00 | 88 | 1010.8 |
| 20260905040204 | 60 | 314 | 0.0 | 0.0 | 0.00 | 0.00 | 0.00 | 88 | 1010.8 |
| 20260905035704 | 60 | 314 | 0.0 | 0.0 | 0.00 | 0.00 | 0.00 | 88 | 1010.8 |
| 20260905035204 | 60 | 314 | 0.0 | 0.0 | 0.00 | 0.00 | 0.00 | 88 | 1010.7 |
| 20260905034704 | 60 | 314 | 0.0 | 0.0 | 0.00 | 0.00 | 0.00 | 88 | 1010.7 |
| 20260905034204 | 61 | 314 | 0.0 | 0.0 | 0.00 | 0.00 | 0.00 | 87 | 1010.4 |
| 20260905033704 | 61 | 314 | 0.0 | 0.0 | 0.00 | 0.00 | 0.00 | 87 | 1010.4 |
| 20260905032704 | 61 | 314 | 0.0 | 0.0 | 0.00 | 0.00 | 0.00 | 87 | 1010.4 |
| 20260905032204 | 61 | 314 | 0.0 | 0.0 | 0.00 | 0.00 | 0.00 | 87 | 1010.5 |
| 20260905030704 | 61 | 314 | 0.0 | 0.0 | 0.00 | 0.00 | 0.00 | 87 | 1010.7 |
| 20260905030204 | 62 | 314 | 0.0 | 0.0 | 0.00 | 0.00 | 0.00 | 87 | 1010.7 |
| 20260905025704 | 62 | 314 | 0.0 | 0.0 | 0.00 | 0.00 | 0.00 | 87 | 1010.8 |
| 20260905025204 | 62 | 314 | 0.0 | 0.0 | 0.00 | 0.00 | 0.00 | 87 | 1010.8 |
| 20260905024704 | 62 | 314 | 0.0 | 0.0 | 0.00 | 0.00 | 0.00 | 87 | 1010.8 |
| 20260905023704 | 62 | 314 | 0.0 | 0.0 | 0.00 | 0.00 | 0.00 | 87 | 1010.8 |
| 20260905023204 | 62 | 314 | 0.0 | 0.0 | 0.00 | 0.00 | 0.00 | 87 | 1010.8 |
| 20260905022704 | 62 | 314 | 0.0 | 0.0 | 0.00 | 0.00 | 0.00 | 86 | 1010.7 |
| 20260905022204 | 62 | 314 | 0.0 | 0.0 | 0.00 | 0.00 | 0.00 | 86 | 1010.7 |
| 20260905021703 | 63 | 314 | 0.0 | 0.0 | 0.00 | 0.00 | 0.00 | 86 | 1010.6 |
| 20260905021204 | 63 | 314 | 0.0 | 0.0 | 0.00 | 0.00 | 0.00 | 86 | 1010.6 |
| 20260905020704 | 63 | 314 | 0.0 | 0.0 | 0.00 | 0.00 | 0.00 | 86 | 1010.6 |
| 20260905020204 | 63 | 314 | 0.0 | 0.0 | 0.00 | 0.00 | 0.00 | 86 | 1010.5 |
| 20260905015704 | 63 | 314 | 0.0 | 0.0 | 0.00 | 0.00 | 0.00 | 85 | 1010.5 |
| 20260905015204 | 63 | 314 | 0.0 | 0.0 | 0.00 | 0.00 | 0.00 | 85 | 1010.7 |
| 20260905014704 | 63 | 314 | 0.0 | 0.0 | 0.00 | 0.00 | 0.00 | 85 | 1010.7 |
| 20260905014204 | 64 | 314 | 0.0 | 0.0 | 0.00 | 0.00 | 0.00 | 85 | 1010.7 |
| 20260905013704 | 64 | 314 | 0.0 | 0.0 | 0.00 | 0.00 | 0.00 | 85 | 1010.8 |
| 20260905013203 | 64 | 314 | 0.0 | 0.0 | 0.00 | 0.00 | 0.00 | 85 | 1010.8 |
| 20260905012704 | 64 | 314 | 0.0 | 0.0 | 0.00 | 0.00 | 0.00 | 85 | 1010.8 |
| 20260905012204 | 64 | 314 | 0.0 | 0.0 | 0.00 | 0.00 | 0.00 | 85 | 1010.8 |
| 20260905011704 | 65 | 314 | 0.0 | 0.0 | 0.00 | 0.00 | 0.00 | 85 | 1010.8 |
| 20260905011204 | 65 | 314 | 0.0 | 0.0 | 0.00 | 0.00 | 0.00 | 85 | 1010.9 |
| 20260905010704 | 65 | 314 | 0.0 | 0.0 | 0.00 | 0.00 | 0.00 | 84 | 1010.8 |
| 20260905010203 | 65 | 314 | 0.0 | 0.0 | 0.00 | 0.00 | 0.00 | 84 | 1010.9 |
| 20260905005704 | 65 | 314 | 0.0 | 0.0 | 0.00 | 0.00 | 0.00 | 84 | 1010.9 |
| 20260905005204 | 66 | 314 | 0.0 | 0.0 | 0.00 | 0.00 | 0.00 | 83 | 1010.8 |
| 20260905004704 | 66 | 314 | 0.0 | 0.0 | 0.00 | 0.00 | 0.00 | 83 | 1010.8 |
| 20260905004204 | 66 | 314 | 0.0 | 0.0 | 0.00 | 0.00 | 0.00 | 83 | 1010.8 |
| 20260905003204 | 67 | 314 | 0.0 | 0.0 | 0.00 | 0.00 | 0.00 | 82 | 1010.7 |
| 20260905002704 | 67 | 314 | 0.0 | 0.0 | 0.00 | 0.00 | 0.00 | 81 | 1010.7 |
| 20260905002204 | 68 | 314 | 0.0 | 0.0 | 0.00 | 0.00 | 0.00 | 81 | 1010.6 |
| 20260905001704 | 68 | 314 | 0.0 | 0.0 | 0.00 | 0.00 | 0.00 | 80 | 1010.4 |
| 20260905001204 | 68 | 314 | 0.0 | 0.0 | 0.00 | 0.00 | 0.00 | 79 | 1010.4 |
| 20260905000703 | 69 | 314 | 0.0 | 1.0 | 0.00 | 0.00 | 0.00 | 79 | 1010.3 |
| 20260905000204 | 69 | 314 | 0.0 | 1.0 | 0.00 | 0.00 | 0.00 | 78 | 1010.2 |
| 20260904235204 | 70 | 314 | 0.0 | 2.0 | 0.00 | 0.00 | 0.00 | 76 | 1010.2 |
| 20260904234704 | 71 | 314 | 1.0 | 3.0 | 0.00 | 0.00 | 0.00 | 75 | 1010.1 |
| 20260904234204 | 71 | 311 | 1.0 | 7.0 | 0.00 | 0.00 | 0.00 | 74 | 1010.1 |
| 20260904233704 | 71 | 305 | 1.0 | 3.0 | 0.00 | 0.00 | 0.00 | 74 | 1010.0 |
| 20260904233204 | 71 | 305 | 1.0 | 3.0 | 0.00 | 0.00 | 0.00 | 74 | 1010.0 |
| 20260904232704 | 71 | 239 | 1.0 | 3.0 | 0.00 | 0.00 | 0.00 | 75 | 1010.0 |
| 20260904231704 | 72 | 239 | 1.0 | 2.0 | 0.00 | 0.00 | 0.00 | 72 | 1009.9 |
| 20260904231204 | 73 | 239 | 0.0 | 1.0 | 0.00 | 0.00 | 0.00 | 71 | 1010.0 |
| 20260904230704 | 74 | 239 | 0.0 | 1.0 | 0.00 | 0.00 | 0.00 | 69 | 1009.9 |
| 20260904230203 | 74 | 239 | 1.0 | 2.0 | 0.00 | 0.00 | 0.00 | 67 | 1009.9 |
| 20260904225703 | 75 | 239 | 1.0 | 2.0 | 0.00 | 0.00 | 0.00 | 67 | 1009.9 |
| 20260904225204 | 75 | 239 | 1.0 | 2.0 | 0.00 | 0.00 | 0.00 | 66 | 1009.9 |
| 20260904224704 | 75 | 240 | 1.0 | 3.0 | 0.00 | 0.00 | 0.00 | 65 | 1009.8 |
| 20260904224204 | 75 | 272 | 1.0 | 5.0 | 0.00 | 0.00 | 0.00 | 67 | 1009.8 |
| 20260904223704 | 75 | 249 | 1.0 | 3.0 | 0.00 | 0.00 | 0.00 | 67 | 1009.8 |
| 20260904223204 | 76 | 276 | 0.0 | 2.0 | 0.00 | 0.00 | 0.00 | 66 | 1009.8 |
| 20260904222704 | 76 | 278 | 1.0 | 2.0 | 0.00 | 0.00 | 0.00 | 66 | 1009.8 |
| 20260904222204 | 76 | 266 | 1.0 | 2.0 | 0.00 | 0.00 | 0.00 | 65 | 1009.7 |
| 20260904221703 | 77 | 266 | 1.0 | 2.0 | 0.00 | 0.00 | 0.00 | 65 | 1009.7 |
| 20260904221204 | 77 | 266 | 2.0 | 3.0 | 0.00 | 0.00 | 0.00 | 63 | 1009.6 |
| 20260904220704 | 77 | 312 | 2.0 | 5.0 | 0.00 | 0.00 | 0.00 | 62 | 1009.6 |
| 20260904220203 | 77 | 299 | 1.0 | 3.0 | 0.00 | 0.00 | 0.00 | 62 | 1009.6 |
| 20260904215704 | 77 | 311 | 2.0 | 3.0 | 0.00 | 0.00 | 0.00 | 61 | 1009.6 |
| 20260904215204 | 78 | 321 | 1.0 | 3.0 | 0.00 | 0.00 | 0.00 | 61 | 1009.6 |
| 20260904214703 | 78 | 299 | 3.0 | 7.0 | 0.00 | 0.00 | 0.00 | 61 | 1009.6 |
| 20260904214204 | 78 | 326 | 2.0 | 12.0 | 0.00 | 0.00 | 0.00 | 60 | 1009.7 |
| 20260904213705 | 78 | 8 | 3.0 | 7.0 | 0.00 | 0.00 | 0.00 | 60 | 1009.7 |
| 20260904213204 | 78 | 298 | 2.0 | 7.0 | 0.00 | 0.00 | 0.00 | 60 | 1009.6 |
| 20260904212704 | 79 | 216 | 1.0 | 3.0 | 0.00 | 0.00 | 0.00 | 59 | 1009.6 |
| 20260904212204 | 80 | 227 | 3.0 | 8.0 | 0.00 | 0.00 | 0.00 | 57 | 1009.6 |
| 20260904211704 | 80 | 200 | 2.0 | 6.0 | 0.00 | 0.00 | 0.00 | 59 | 1009.7 |
| 20260904211204 | 80 | 295 | 2.0 | 5.0 | 0.00 | 0.00 | 0.00 | 58 | 1009.8 |
| 20260904210703 | 80 | 302 | 3.0 | 12.0 | 0.00 | 0.00 | 0.00 | 57 | 1009.8 |
| 20260904205704 | 80 | 302 | 2.0 | 7.0 | 0.00 | 0.00 | 0.00 | 59 | 1009.9 |
| 20260904205204 | 81 | 204 | 3.0 | 9.0 | 0.00 | 0.00 | 0.00 | 58 | 1009.8 |
| 20260904204204 | 80 | 312 | 2.0 | 3.0 | 0.00 | 0.00 | 0.00 | 60 | 1009.8 |
| 20260904203704 | 79 | 301 | 2.0 | 8.0 | 0.00 | 0.00 | 0.00 | 60 | 1009.8 |
| 20260904202704 | 80 | 275 | 2.0 | 8.0 | 0.00 | 0.00 | 0.00 | 59 | 1009.8 |
| 20260904201705 | 82 | 333 | 1.0 | 3.0 | 0.00 | 0.00 | 0.00 | 59 | 1009.9 |
| 20260904201204 | 81 | 313 | 2.0 | 5.0 | 0.00 | 0.00 | 0.00 | 59 | 1009.9 |
| 20260904200704 | 81 | 274 | 2.0 | 5.0 | 0.00 | 0.00 | 0.00 | 57 | 1009.9 |
| 20260904200204 | 82 | 18 | 2.0 | 10.0 | 0.00 | 0.00 | 0.00 | 56 | 1010.0 |
| 20260904195704 | 82 | 264 | 4.0 | 13.0 | 0.00 | 0.00 | 0.00 | 56 | 1010.0 |
| 20260904195204 | 82 | 292 | 1.0 | 3.0 | 0.00 | 0.00 | 0.00 | 57 | 1010.0 |
| 20260904194705 | 81 | 311 | 3.0 | 10.0 | 0.00 | 0.00 | 0.00 | 58 | 1010.0 |
| 20260904194203 | 80 | 312 | 3.0 | 6.0 | 0.00 | 0.00 | 0.00 | 59 | 1010.1 |
| 20260904193705 | 80 | 238 | 4.0 | 10.0 | 0.00 | 0.00 | 0.00 | 59 | 1010.1 |
| 20260904193204 | 80 | 233 | 3.0 | 10.0 | 0.00 | 0.00 | 0.00 | 58 | 1010.0 |
| 20260904192704 | 81 | 257 | 2.0 | 5.0 | 0.00 | 0.00 | 0.00 | 60 | 1010.1 |
| 20260904192203 | 81 | 230 | 3.0 | 8.0 | 0.00 | 0.00 | 0.00 | 58 | 1010.0 |
| 20260904191704 | 80 | 312 | 2.0 | 9.0 | 0.00 | 0.00 | 0.00 | 60 | 1010.1 |
| 20260904190704 | 80 | 311 | 3.0 | 8.0 | 0.00 | 0.00 | 0.00 | 59 | 1010.2 |
| 20260904185704 | 78 | 228 | 1.0 | 3.0 | 0.00 | 0.00 | 0.00 | 63 | 1010.2 |
| 20260904184703 | 79 | 250 | 3.0 | 8.0 | 0.00 | 0.00 | 0.00 | 60 | 1010.3 |
| 20260904183704 | 79 | 304 | 2.0 | 5.0 | 0.00 | 0.00 | 0.00 | 60 | 1010.5 |
| 20260904183204 | 79 | 340 | 3.0 | 8.0 | 0.00 | 0.00 | 0.00 | 61 | 1010.6 |
| 20260904180704 | 78 | 231 | 3.0 | 6.0 | 0.00 | 0.00 | 0.00 | 62 | 1010.8 |
| 20260904180204 | 78 | 266 | 2.0 | 10.0 | 0.00 | 0.00 | 0.00 | 59 | 1010.8 |
| 20260904175704 | 79 | 300 | 4.0 | 12.0 | 0.00 | 0.00 | 0.00 | 59 | 1010.7 |
| 20260904175204 | 79 | 243 | 2.0 | 5.0 | 0.00 | 0.00 | 0.00 | 60 | 1010.7 |
| 20260904174704 | 78 | 318 | 3.0 | 8.0 | 0.00 | 0.00 | 0.00 | 61 | 1010.6 |
| 20260904174204 | 77 | 281 | 2.0 | 6.0 | 0.00 | 0.00 | 0.00 | 64 | 1010.6 |
| 20260904173704 | 77 | 135 | 1.0 | 8.0 | 0.00 | 0.00 | 0.00 | 64 | 1010.6 |
| 20260904172704 | 78 | 4 | 2.0 | 6.0 | 0.00 | 0.00 | 0.00 | 61 | 1010.6 |
| 20260904172204 | 78 | 310 | 1.0 | 8.0 | 0.00 | 0.00 | 0.00 | 63 | 1010.4 |
| 20260904171704 | 78 | 146 | 2.0 | 8.0 | 0.00 | 0.00 | 0.00 | 59 | 1010.4 |
| 20260904171204 | 79 | 282 | 3.0 | 7.0 | 0.00 | 0.00 | 0.00 | 58 | 1010.2 |
| 20260904170704 | 78 | 248 | 3.0 | 7.0 | 0.00 | 0.00 | 0.00 | 63 | 1010.3 |
| 20260904170204 | 77 | 32 | 5.0 | 10.0 | 0.00 | 0.00 | 0.00 | 63 | 1010.4 |
| 20260904165203 | 78 | 311 | 2.0 | 6.0 | 0.00 | 0.00 | 0.00 | 65 | 1010.4 |
| 20260904164704 | 77 | 230 | 3.0 | 9.0 | 0.00 | 0.00 | 0.00 | 66 | 1010.5 |
| 20260904164204 | 76 | 231 | 2.0 | 6.0 | 0.00 | 0.00 | 0.00 | 66 | 1010.6 |
| 20260904163704 | 76 | 307 | 3.0 | 12.0 | 0.00 | 0.00 | 0.00 | 65 | 1010.7 |
| 20260904163204 | 77 | 312 | 2.0 | 12.0 | 0.00 | 0.00 | 0.00 | 63 | 1010.7 |
| 20260904162704 | 77 | 260 | 2.0 | 9.0 | 0.00 | 0.00 | 0.00 | 66 | 1010.7 |
| 20260904162204 | 77 | 255 | 4.0 | 8.0 | 0.00 | 0.00 | 0.00 | 67 | 1010.7 |
| 20260904161704 | 77 | 177 | 2.0 | 8.0 | 0.00 | 0.00 | 0.00 | 67 | 1010.9 |
| 20260904161204 | 76 | 312 | 2.0 | 10.0 | 0.00 | 0.00 | 0.00 | 68 | 1011.1 |
| 20260904160203 | 76 | 305 | 2.0 | 3.0 | 0.00 | 0.00 | 0.00 | 69 | 1011.1 |
| 20260904155704 | 76 | 304 | 3.0 | 7.0 | 0.00 | 0.00 | 0.00 | 68 | 1011.0 |
| 20260904155204 | 75 | 325 | 2.0 | 5.0 | 0.00 | 0.00 | 0.00 | 69 | 1010.9 |
| 20260904154704 | 76 | 289 | 1.0 | 6.0 | 0.00 | 0.00 | 0.00 | 69 | 1011.1 |
| 20260904154204 | 76 | 348 | 3.0 | 9.0 | 0.00 | 0.00 | 0.00 | 70 | 1011.0 |
| 20260904153704 | 76 | 230 | 2.0 | 8.0 | 0.00 | 0.00 | 0.00 | 69 | 1011.4 |
| 20260904153204 | 76 | 302 | 4.0 | 8.0 | 0.00 | 0.00 | 0.00 | 70 | 1011.3 |
| 20260904152704 | 75 | 314 | 3.0 | 8.0 | 0.00 | 0.00 | 0.00 | 70 | 1011.2 |
| 20260904152204 | 75 | 252 | 2.0 | 8.0 | 0.00 | 0.00 | 0.00 | 71 | 1011.3 |
| 20260904151705 | 75 | 322 | 3.0 | 8.0 | 0.00 | 0.00 | 0.00 | 70 | 1011.5 |
| 20260904150204 | 75 | 215 | 2.0 | 9.0 | 0.00 | 0.00 | 0.00 | 72 | 1011.5 |
| 20260904145704 | 75 | 279 | 2.0 | 10.0 | 0.00 | 0.00 | 0.00 | 72 | 1011.5 |
| 20260904145204 | 75 | 202 | 2.0 | 7.0 | 0.00 | 0.00 | 0.00 | 72 | 1011.5 |
| 20260904144204 | 74 | 282 | 2.0 | 3.0 | 0.00 | 0.00 | 0.00 | 73 | 1011.4 |
| 20260904143704 | 74 | 245 | 2.0 | 8.0 | 0.00 | 0.00 | 0.00 | 72 | 1011.3 |
| 20260904140703 | 74 | 295 | 3.0 | 8.0 | 0.00 | 0.00 | 0.00 | 75 | 1011.4 |
| 20260904135704 | 73 | 246 | 1.0 | 3.0 | 0.00 | 0.00 | 0.00 | 76 | 1011.3 |
| 20260904135204 | 73 | 260 | 1.0 | 3.0 | 0.00 | 0.00 | 0.00 | 77 | 1011.3 |
| 20260904134704 | 73 | 256 | 2.0 | 3.0 | 0.00 | 0.00 | 0.00 | 77 | 1011.3 |
| 20260904133204 | 73 | 313 | 2.0 | 7.0 | 0.00 | 0.00 | 0.00 | 78 | 1011.4 |
| 20260904132704 | 72 | 220 | 2.0 | 6.0 | 0.00 | 0.00 | 0.00 | 79 | 1011.4 |
| 20260904132204 | 72 | 291 | 3.0 | 6.0 | 0.00 | 0.00 | 0.00 | 80 | 1011.5 |
| 20260904131703 | 72 | 280 | 2.0 | 6.0 | 0.00 | 0.00 | 0.00 | 83 | 1011.6 |
| 20260904131204 | 72 | 316 | 1.0 | 3.0 | 0.00 | 0.00 | 0.00 | 86 | 1011.5 |
| 20260904130704 | 71 | 323 | 1.0 | 3.0 | 0.00 | 0.00 | 0.00 | 88 | 1011.4 |
| 20260904125203 | 69 | 305 | 0.0 | 3.0 | 0.00 | 0.00 | 0.00 | 91 | 1011.5 |
| 20260904124204 | 68 | 303 | 0.0 | 0.0 | 0.00 | 0.00 | 0.00 | 91 | 1011.5 |
| 20260904123704 | 68 | 303 | 0.0 | 0.0 | 0.00 | 0.00 | 0.00 | 91 | 1011.5 |
| 20260904123204 | 68 | 303 | 0.0 | 0.0 | 0.00 | 0.00 | 0.00 | 91 | 1011.5 |
| 20260904122704 | 68 | 303 | 0.0 | 0.0 | 0.00 | 0.00 | 0.00 | 91 | 1011.4 |
| 20260904121704 | 67 | 303 | 0.0 | 0.0 | 0.00 | 0.00 | 0.00 | 92 | 1011.4 |
| 20260904121205 | 67 | 303 | 0.0 | 0.0 | 0.00 | 0.00 | 0.00 | 92 | 1011.4 |
| 20260904120704 | 67 | 303 | 0.0 | 0.0 | 0.00 | 0.00 | 0.00 | 91 | 1011.4 |
| 20260904115204 | 66 | 303 | 0.0 | 0.0 | 0.00 | 0.00 | 0.00 | 91 | 1011.3 |
| 20260904114704 | 66 | 303 | 0.0 | 0.0 | 0.00 | 0.00 | 0.00 | 91 | 1011.2 |
| 20260904114204 | 66 | 303 | 0.0 | 0.0 | 0.00 | 0.00 | 0.00 | 91 | 1011.3 |
| 20260904113204 | 66 | 303 | 0.0 | 0.0 | 0.00 | 0.00 | 0.00 | 91 | 1011.2 |
| 20260904112704 | 66 | 303 | 0.0 | 1.0 | 0.00 | 0.01 | 0.00 | 91 | 1011.1 |
| 20260904110704 | 65 | 303 | 0.0 | 0.0 | 0.00 | 0.01 | 0.00 | 91 | 1010.9 |
| 20260904105704 | 65 | 303 | 0.0 | 0.0 | 0.00 | 0.01 | 0.00 | 91 | 1010.9 |
| 20260904105204 | 65 | 303 | 0.0 | 0.0 | 0.00 | 0.01 | 0.00 | 91 | 1010.8 |
| 20260904104704 | 65 | 303 | 0.0 | 0.0 | 0.00 | 0.01 | 0.00 | 91 | 1010.6 |
| 20260904104204 | 65 | 303 | 0.0 | 0.0 | 0.00 | 0.01 | 0.00 | 91 | 1010.5 |
| 20260904103706 | 65 | 303 | 0.0 | 0.0 | 0.00 | 0.01 | 0.00 | 91 | 1010.5 |
| 20260904101204 | 66 | 303 | 0.0 | 0.0 | 0.00 | 0.01 | 0.00 | 91 | 1010.6 |
| 20260904100704 | 67 | 303 | 0.0 | 0.0 | 0.00 | 0.01 | 0.00 | 91 | 1010.5 |
| 20260904100204 | 67 | 303 | 0.0 | 0.0 | 0.00 | 0.01 | 0.00 | 91 | 1010.5 |
| 20260904095204 | 67 | 303 | 0.0 | 1.0 | 0.00 | 0.01 | 0.00 | 91 | 1010.5 |
| 20260904094705 | 67 | 303 | 0.0 | 0.0 | 0.00 | 0.01 | 0.00 | 91 | 1010.5 |
| 20260904094204 | 67 | 303 | 0.0 | 0.0 | 0.00 | 0.01 | 0.00 | 91 | 1010.3 |
| 20260904093704 | 67 | 303 | 0.0 | 0.0 | 0.00 | 0.01 | 0.00 | 91 | 1010.3 |
| 20260904093204 | 68 | 303 | 0.0 | 0.0 | 0.00 | 0.01 | 0.00 | 91 | 1010.3 |
| 20260904092704 | 68 | 303 | 0.0 | 0.0 | 0.00 | 0.01 | 0.00 | 91 | 1010.3 |
| 20260904091703 | 68 | 303 | 1.0 | 2.0 | 0.00 | 0.01 | 0.00 | 91 | 1010.3 |
| 20260904091204 | 68 | 303 | 0.0 | 0.0 | 0.00 | 0.01 | 0.00 | 91 | 1010.3 |
| 20260904090704 | 68 | 303 | 0.0 | 1.0 | 0.00 | 0.01 | 0.00 | 91 | 1010.3 |
| 20260904090204 | 68 | 303 | 0.0 | 1.0 | 0.00 | 0.01 | 0.00 | 91 | 1010.3 |
| 20260904085704 | 68 | 303 | 0.0 | 0.0 | 0.00 | 0.01 | 0.00 | 91 | 1010.2 |
| 20260904085204 | 68 | 303 | 0.0 | 1.0 | 0.00 | 0.01 | 0.00 | 91 | 1010.4 |
| 20260904084704 | 68 | 303 | 0.0 | 1.0 | 0.00 | 0.01 | 0.00 | 91 | 1010.2 |
| 20260904084205 | 68 | 303 | 0.0 | 0.0 | 0.00 | 0.01 | 0.00 | 91 | 1010.1 |
| 20260904083705 | 68 | 303 | 0.0 | 0.0 | 0.00 | 0.01 | 0.00 | 91 | 1010.0 |
| 20260904083204 | 68 | 303 | 0.0 | 0.0 | 0.00 | 0.01 | 0.00 | 91 | 1009.8 |
| 20260904082704 | 68 | 303 | 0.0 | 1.0 | 0.00 | 0.01 | 0.00 | 91 | 1009.8 |
| 20260904082205 | 68 | 303 | 0.0 | 0.0 | 0.00 | 0.01 | 0.00 | 91 | 1009.8 |
| 20260904081704 | 68 | 303 | 0.0 | 0.0 | 0.00 | 0.01 | 0.00 | 91 | 1009.8 |
| 20260904081205 | 68 | 303 | 0.0 | 0.0 | 0.00 | 0.01 | 0.00 | 91 | 1009.8 |
| 20260904080205 | 68 | 303 | 0.0 | 1.0 | 0.00 | 0.01 | 0.00 | 91 | 1009.8 |
| 20260904075705 | 68 | 303 | 1.0 | 2.0 | 0.00 | 0.01 | 0.00 | 91 | 1009.9 |
| 20260904074704 | 68 | 303 | 0.0 | 0.0 | 0.00 | 0.01 | 0.00 | 91 | 1009.9 |
| 20260904074205 | 69 | 303 | 0.0 | 1.0 | 0.00 | 0.01 | 0.00 | 91 | 1009.9 |
| 20260904073705 | 69 | 303 | 0.0 | 0.0 | 0.00 | 0.01 | 0.00 | 91 | 1010.0 |
| 20260904073205 | 69 | 303 | 0.0 | 1.0 | 0.00 | 0.01 | 0.00 | 91 | 1010.0 |
| 20260904072705 | 69 | 303 | 1.0 | 2.0 | 0.00 | 0.01 | 0.00 | 91 | 1010.1 |
| 20260904072204 | 69 | 303 | 0.0 | 1.0 | 0.00 | 0.01 | 0.00 | 91 | 1010.1 |
| 20260904071705 | 69 | 303 | 0.0 | 0.0 | 0.00 | 0.01 | 0.00 | 91 | 1010.1 |
| 20260904071207 | 69 | 303 | 0.0 | 0.0 | 0.00 | 0.01 | 0.00 | 91 | 1010.1 |
| 20260904070204 | 69 | 303 | 0.0 | 0.0 | 0.00 | 0.01 | 0.00 | 91 | 1010.3 |
| 20260904065703 | 69 | 303 | 0.0 | 0.0 | 0.00 | 0.01 | 0.00 | 91 | 1010.5 |
| 20260904064204 | 69 | 303 | 0.0 | 0.0 | 0.00 | 0.01 | 0.00 | 91 | 1010.7 |
| 20260904063704 | 69 | 303 | 0.0 | 0.0 | 0.00 | 0.01 | 0.00 | 91 | 1010.7 |
| 20260904062704 | 69 | 303 | 0.0 | 0.0 | 0.00 | 0.01 | 0.00 | 91 | 1010.8 |
| 20260904062204 | 69 | 303 | 0.0 | 0.0 | 0.00 | 0.01 | 0.00 | 91 | 1010.8 |
| 20260904061703 | 69 | 303 | 0.0 | 1.0 | 0.00 | 0.01 | 0.00 | 91 | 1011.0 |
| 20260904061204 | 69 | 303 | 0.0 | 0.0 | 0.00 | 0.01 | 0.00 | 91 | 1010.9 |
| 20260904060704 | 69 | 303 | 0.0 | 0.0 | 0.00 | 0.01 | 0.00 | 91 | 1010.8 |
| 20260904060204 | 69 | 303 | 0.0 | 0.0 | 0.00 | 0.01 | 0.00 | 91 | 1010.9 |
| 20260904055704 | 69 | 303 | 0.0 | 0.0 | 0.00 | 0.01 | 0.00 | 91 | 1011.0 |
| 20260904055204 | 69 | 303 | 0.0 | 0.0 | 0.00 | 0.01 | 0.00 | 91 | 1011.0 |
| 20260904054704 | 69 | 303 | 0.0 | 0.0 | 0.00 | 0.02 | 0.00 | 91 | 1010.9 |
| 20260904054204 | 69 | 303 | 0.0 | 0.0 | 0.00 | 0.02 | 0.00 | 91 | 1010.8 |
| 20260904053704 | 69 | 303 | 0.0 | 0.0 | 0.00 | 0.03 | 0.00 | 91 | 1011.0 |
| 20260904052704 | 69 | 303 | 0.0 | 0.0 | 0.00 | 0.06 | 0.00 | 90 | 1011.0 |
| 20260904052204 | 69 | 303 | 0.0 | 0.0 | 0.00 | 0.07 | 0.00 | 90 | 1011.0 |
| 20260904051704 | 69 | 303 | 0.0 | 0.0 | 0.00 | 0.08 | 0.00 | 90 | 1011.1 |
| 20260904051204 | 69 | 303 | 0.0 | 0.0 | 0.00 | 0.09 | 0.00 | 90 | 1011.0 |
| 20260904050704 | 69 | 303 | 0.0 | 0.0 | 0.00 | 0.10 | 0.00 | 90 | 1011.1 |
| 20260904050204 | 69 | 303 | 0.0 | 0.0 | 0.00 | 0.10 | 0.00 | 90 | 1011.2 |
| 20260904045704 | 69 | 303 | 0.0 | 0.0 | 0.00 | 0.11 | 0.00 | 90 | 1011.3 |